User: anonymous
Location: Oshawa
(43.9000°N, 78.8670°W)
Time: 12:04:01
(UTC-04:00)
Language:

CZ-4C R/B - Orbit

View from above orbital plane
View from above orbital plane
View from above satellite
View from above satellite

Ground track
Ground track

The orbit data is extracted from the following two-line orbital elements,

1 32290U 07055B   14238.16533230  .00006937  00000-0  26961-3 0  9356
2 32290 097.5715 313.3620 0088402 164.2116 250.3470 15.22749845374926
Epoch (UTC): 26 August 2014 03:58:04
Eccentricity: 0.0088402
inclination: 97.5715°
perigee height: 437 km
apogee height: 558 km
right ascension of ascending node: 313.3620°
argument of perigee: 164.2116°
revolutions per day: 15.22749845
mean anomaly at epoch: 250.3470°
orbit number at epoch: 37492

The dashed part of the orbit path shows where the satellite is in the earth's shadow,  

DLR